Fitchburg, MA

3:02 PM EDT on June 25, 2017 (GMT -0400)
Fitchburg Municipal

Weather History for KFIT - June, 2013

Change the Weather History Date:

Saturday, June 29, 2013

  Actual Average (KORH) Record (KORH)
Temperature  
Mean Temperature 76 °F -  
Max Temperature 84 °F 76 °F 95 °F (1933)
Min Temperature 69 °F 58 °F 49 °F (1968)
Cooling Degree Days 10    
Growing Degree Days 26 (Base 50)    
Moisture  
Dew Point 67 °F    
Average Humidity 78    
Maximum Humidity 94    
Minimum Humidity 53    
Precipitation  
Precipitation 0.00 in - - ()
Sea Level Pressure  
Sea Level Pressure 29.58 in    
Wind  
Wind Speed 7 mph (South)    
Max Wind Speed 16 mph    
Max Gust Speed 23 mph    
Visibility 9 miles    
Events Rain    
Averages and records for this station are not official NWS values.
T = Trace of Precipitation, MM = Missing Value Source: NWS Daily Summary

Daily Weather History Graph

Daily Weather History Graph

Search for Another Location

Airport or City:

Trip Planner

Search our weather history database for the weather conditions in past years. The results will help you decide how hot, cold, wet, or windy it might be!

Date:

Astronomy

Jun. 29, 2013 Rise Set
Actual Time 5:12 AM EDT 8:28 PM EDT
Civil Twilight 4:37 AM EDT 9:03 PM EDT
Nautical Twilight 3:52 AM EDT 9:48 PM EDT
Astronomical Twilight 2:57 AM EDT 10:43 PM EDT
Moon No Moon Rise 12:30 PM EDT (6/29)
Length of Visible Light 16h 25m
Length of Day
15h 16m
Waning Gibbous, 56% of the Moon is Illuminated
Jun 29
Waning Gibbous
Jun 30
Last Quarter
Jul 8
New
Jul 15
First Quarter
Jul 22
Full

Hourly Weather History & Observations

Time (EDT) Temp. Heat Index Dew Point Humidity Pressure Visibility Wind Dir Wind Speed Gust Speed Precip Events Conditions
12:52 AM 72.0 °F - 69.1 °F 91% 29.53 in 7.0 mi SE 9.2 mph - N/A   Overcast
1:52 AM 72.0 °F - 69.1 °F 91% 29.52 in 7.0 mi SE 5.8 mph - N/A   Mostly Cloudy
2:10 AM 71.6 °F - 69.8 °F 94% 29.52 in 7.0 mi ESE 3.5 mph - N/A   Mostly Cloudy
2:37 AM 71.6 °F - 68.0 °F 88% 29.52 in 7.0 mi SSE 5.8 mph - N/A   Scattered Clouds
2:52 AM 71.1 °F - 68.0 °F 90% 29.52 in 7.0 mi SE 6.9 mph - N/A   Partly Cloudy
3:27 AM 71.6 °F - 68.0 °F 88% 29.52 in 7.0 mi SSE 4.6 mph - N/A   Mostly Cloudy
3:39 AM 71.6 °F - 68.0 °F 88% 29.52 in 6.0 mi Calm Calm - N/A   Overcast
3:52 AM 71.1 °F - 68.0 °F 90% 29.53 in 6.0 mi Calm Calm - N/A   Overcast
4:52 AM 70.0 °F - 68.0 °F 93% 29.53 in 8.0 mi SSE 5.8 mph - N/A   Scattered Clouds
5:52 AM 69.1 °F - 66.9 °F 93% 29.55 in 4.0 mi Calm Calm - N/A   Clear
6:23 AM 71.6 °F - 68.0 °F 88% 29.56 in 6.0 mi SSE 4.6 mph - N/A   Scattered Clouds
6:45 AM 71.6 °F - 68.0 °F 88% 29.56 in 8.0 mi SSE 5.8 mph - N/A   Mostly Cloudy
6:52 AM 72.0 °F - 68.0 °F 87% 29.56 in 8.0 mi SE 5.8 mph - N/A   Mostly Cloudy
7:04 AM 71.6 °F - 68.0 °F 88% 29.57 in 8.0 mi SSE 5.8 mph - N/A   Scattered Clouds
7:12 AM 73.4 °F - 68.0 °F 83% 29.57 in 9.0 mi SSE 4.6 mph - N/A   Mostly Cloudy
7:52 AM 73.9 °F - 68.0 °F 82% 29.56 in 10.0 mi SSE 5.8 mph - N/A   Overcast
8:52 AM 77.0 °F - 66.9 °F 71% 29.57 in 10.0 mi SW 3.5 mph - N/A   Mostly Cloudy
9:52 AM 75.9 °F - 66.9 °F 74% 29.58 in 10.0 mi Variable 5.8 mph - N/A   Mostly Cloudy
10:01 AM 75.2 °F - 66.2 °F 73% 29.59 in 10.0 mi SSW 3.5 mph - N/A   Mostly Cloudy
10:52 AM 75.0 °F - 69.1 °F 82% 29.59 in 10.0 mi South 5.8 mph - 0.00 in Rain Light Rain
11:00 AM 75.2 °F - 69.8 °F 83% 29.59 in 10.0 mi SSE 5.8 mph - 0.00 in   Overcast
11:52 AM 77.0 °F - 69.1 °F 76% 29.60 in 10.0 mi SSW 8.1 mph - 0.00 in   Mostly Cloudy
12:35 PM 80.6 °F 82.7 °F 66.2 °F 61% 29.59 in 10.0 mi SSW 12.7 mph 20.7 mph N/A   Scattered Clouds
12:52 PM 82.0 °F 84.1 °F 66.0 °F 58% 29.59 in 10.0 mi SSW 12.7 mph 20.7 mph N/A   Clear
1:52 PM 82.9 °F 84.6 °F 64.9 °F 54% 29.59 in 10.0 mi South 13.8 mph 20.7 mph N/A   Partly Cloudy
2:52 PM 82.9 °F 85.0 °F 66.0 °F 56% 29.59 in 10.0 mi SSW 11.5 mph 20.7 mph N/A   Mostly Cloudy
3:52 PM 82.9 °F 84.4 °F 64.0 °F 53% 29.59 in 10.0 mi SSW 11.5 mph 21.9 mph N/A   Clear
4:52 PM 82.9 °F 84.4 °F 64.0 °F 53% 29.60 in 10.0 mi South 16.1 mph 23.0 mph N/A   Clear
5:52 PM 82.9 °F 85.0 °F 66.0 °F 56% 29.61 in 10.0 mi South 15.0 mph - N/A   Partly Cloudy
6:52 PM 80.1 °F 82.3 °F 66.9 °F 64% 29.62 in 10.0 mi SSW 10.4 mph 19.6 mph N/A   Clear
7:52 PM 77.0 °F - 66.0 °F 69% 29.65 in 10.0 mi South 10.4 mph 18.4 mph N/A   Partly Cloudy
8:52 PM 75.0 °F - 66.0 °F 73% 29.66 in 10.0 mi South 8.1 mph - N/A   Clear
9:52 PM 73.9 °F - 66.0 °F 76% 29.70 in 10.0 mi South 5.8 mph - N/A   Clear
10:52 PM 73.0 °F - 66.9 °F 81% 29.71 in 10.0 mi South 5.8 mph - N/A   Clear
11:52 PM 72.0 °F - 66.9 °F 84% 29.73 in 10.0 mi Calm Calm - N/A   Clear